sat.trackr.live / text

‹ back to catalog

STARLINK-35358

NORAD 66564 · 2025-268H

PAYLOAD ACTIVE UNKNOWN

§ Identity

Operator
Country
US
Launch date
2025-11-21
Launch site
AFETR
Launch vehicle
Mass (kg)
RCS (m²)

Purposes: comms

External: N2YO · Heavens-Above · Gunter

§ Orbital elements

Epoch: 2026-05-24T17:56:59.556192Z

Period
94.27 min
Inclination
43.0015°
Eccentricity
0.0001168
Mean motion
15.27585264 rev/d
Perigee alt
482.2 km
Apogee alt
483.8 km
Semi-major
6,861.2 km
B*
3.3967e-4
RAAN
277.3766°
Arg perigee
272.4987°
Mean anomaly
87.5731°
Rev number
2,959

§ Raw data

STARLINK-353581 66564U 25268H   26144.74791153  .00009098  00000+0  33967-3 0  99902 66564  43.0015 277.3766 0001168 272.4987  87.5731 15.27585264 29596

JSON: /api/v1/satellites/66564 · /tle

For live sub-satellite position, see the globe view (requires WebGL).

§ Visibility from observer

Set your observer location to see the next 7 days of passes ≥ 10°. The values pass through the URL so the page stays shareable.

No JS? Fill the form by hand. The geolocation button needs JavaScript.